N7ZEF Weather Reports


Display with metric or nautical units.
time (UTC)temp
F
wind
direction
speed
MPH
gust
MPH
rain 1hr
in
rain 24hr
in
rain mn
in
humidity
%
barometer
mb
20260504141312 52 114 0.0 0.0 0.00 0.00 0.00 36 1013.5
20260504140311 51 114 0.0 0.0 0.00 0.00 0.00 39 1013.3
20260504130303 42 159 0.0 3.0 0.00 0.00 0.00 50 1013.0
20260504120255 40 264 0.0 0.0 0.00 0.00 0.00 51 1012.3
20260504110246 41 10 0.0 1.0 0.00 0.00 0.00 48 1012.2
20260504100238 40 10 0.0 0.0 0.00 0.00 0.00 50 1011.9
20260504081223 44 10 0.0 0.0 0.00 0.00 0.00 43 1011.9
20260504080221 45 10 0.0 0.0 0.00 0.00 0.00 41 1011.9
20260504070213 46 10 0.0 3.0 0.00 0.00 0.00 40 1012.3
20260504060204 46 250 0.0 0.0 0.00 0.00 0.00 40 1012.4
20260504050156 50 250 0.0 0.0 0.00 0.00 0.00 36 1012.8
20260504045155 50 250 0.0 0.0 0.00 0.00 0.00 35 1012.8
20260504044153 51 250 0.0 0.0 0.00 0.00 0.00 34 1013.0
20260504043152 52 250 0.0 0.0 0.00 0.00 0.00 33 1013.0
20260504042151 51 217 1.0 3.0 0.00 0.00 0.00 31 1012.8
20260504041149 51 212 0.0 2.0 0.00 0.00 0.00 31 1012.8
20260504040148 52 291 0.0 2.0 0.00 0.00 0.00 31 1013.1
20260504035146 52 174 0.0 0.0 0.00 0.00 0.00 29 1012.8
20260504034145 53 174 0.0 0.0 0.00 0.00 0.00 28 1012.8
20260504033144 53 174 0.0 0.0 0.00 0.00 0.00 28 1012.8
20260504032142 53 174 0.0 0.0 0.00 0.00 0.00 27 1012.7
20260504031141 54 221 1.0 4.0 0.00 0.00 0.00 28 1012.8
20260504030139 55 311 0.0 0.0 0.00 0.00 0.00 26 1012.8
20260504025138 56 311 0.0 0.0 0.00 0.00 0.00 26 1012.7
20260504024137 57 269 0.0 0.0 0.00 0.00 0.00 24 1012.6
20260504023135 58 269 0.0 0.0 0.00 0.00 0.00 23 1012.4
20260504022134 59 269 0.0 0.0 0.00 0.00 0.00 22 1012.3
20260504021132 59 269 0.0 0.0 0.00 0.00 0.00 21 1012.3
20260504020131 61 297 1.0 7.0 0.00 0.00 0.00 20 1012.4
20260504015130 61 285 4.0 4.0 0.00 0.00 0.00 18 1012.4
20260504014128 61 302 2.0 10.0 0.00 0.00 0.00 18 1012.3
20260504013127 61 1 1.0 10.0 0.00 0.00 0.00 17 1012.3
20260504012126 62 329 0.0 4.0 0.00 0.00 0.00 17 1012.4
20260504011124 63 285 1.0 6.0 0.00 0.00 0.00 15 1012.4
20260504010123 64 301 0.0 8.0 0.00 0.00 0.00 14 1012.6
20260504005121 66 198 3.0 8.0 0.00 0.00 0.00 12 1012.6
20260504004120 66 269 0.0 6.0 0.00 0.00 0.00 11 1012.7
20260504003119 66 305 3.0 10.0 0.00 0.00 0.00 11 1012.8
20260504002117 67 218 0.0 3.0 0.00 0.00 0.00 10 1013.0
20260504001116 67 262 3.0 9.0 0.00 0.00 0.00 10 1013.1
20260504000114 67 304 2.0 7.0 0.00 0.00 0.00 11 1013.1
20260503235113 66 325 3.0 8.0 0.00 0.00 0.00 13 1013.2
20260503234112 66 316 2.0 6.0 0.00 0.00 0.00 11 1013.3
20260503233110 66 305 3.0 9.0 0.00 0.00 0.00 14 1013.5
20260503232109 67 233 2.0 13.0 0.00 0.00 0.00 13 1013.6
20260503231109 66 308 1.0 7.0 0.00 0.00 0.00 14 1013.7
20260503230106 67 20 1.0 7.0 0.00 0.00 0.00 14 1013.8
20260503225105 68 266 2.0 7.0 0.00 0.00 0.00 13 1014.0
20260503224102 69 174 0.0 7.0 0.00 0.00 0.00 13 1014.0
20260503223101 68 271 4.0 11.0 0.00 0.00 0.00 13 1014.1
20260503222100 69 240 1.0 7.0 0.00 0.00 0.00 12 1014.2
20260503221058 69 252 3.0 8.0 0.00 0.00 0.00 12 1014.5
20260503220057 68 25 3.0 10.0 0.00 0.00 0.00 13 1014.6
20260503215054 67 328 3.0 8.0 0.00 0.00 0.00 13 1014.9
20260503214053 67 17 2.0 7.0 0.00 0.00 0.00 14 1015.0
20260503213052 66 322 2.0 7.0 0.00 0.00 0.00 14 1015.2
20260503212050 66 318 3.0 10.0 0.00 0.00 0.00 14 1015.5
20260503211049 65 339 2.0 7.0 0.00 0.00 0.00 14 1015.6
20260503210047 66 260 3.0 12.0 0.00 0.00 0.00 15 1015.7
20260503205046 66 309 4.0 9.0 0.00 0.00 0.00 15 1016.0
20260503204045 66 278 3.0 9.0 0.00 0.00 0.00 14 1016.1
20260503203043 67 321 3.0 11.0 0.00 0.00 0.00 13 1016.4
20260503202042 67 295 2.0 8.0 0.00 0.00 0.00 14 1016.4
20260503201041 65 285 3.0 11.0 0.00 0.00 0.00 14 1016.8
20260503200039 66 37 0.0 3.0 0.00 0.00 0.00 16 1016.8
20260503195038 64 280 2.0 10.0 0.00 0.00 0.00 16 1016.9
20260503194036 65 321 3.0 8.0 0.00 0.00 0.00 15 1016.9
20260503193039 65 1 4.0 9.0 0.00 0.00 0.00 16 1017.0
20260503192034 66 283 2.0 9.0 0.00 0.00 0.00 16 1017.3
20260503191032 65 307 1.0 8.0 0.00 0.00 0.00 16 1017.3
20260503190031 64 238 2.0 10.0 0.00 0.00 0.00 16 1017.5
20260503185029 65 359 0.0 7.0 0.00 0.00 0.00 15 1017.7
20260503184028 64 329 0.0 4.0 0.00 0.00 0.00 17 1017.9
20260503183027 64 305 2.0 8.0 0.00 0.00 0.00 17 1018.2
20260503182025 64 190 1.0 8.0 0.00 0.00 0.00 19 1018.3
20260503181024 63 267 2.0 9.0 0.00 0.00 0.00 19 1018.5
20260503180023 63 256 4.0 9.0 0.00 0.00 0.00 18 1018.5
20260503175021 63 301 4.0 8.0 0.00 0.00 0.00 18 1018.8
20260503174020 63 38 5.0 11.0 0.00 0.00 0.00 19 1019.0
20260503173019 62 200 1.0 10.0 0.00 0.00 0.00 20 1019.0
20260503172017 62 338 1.0 8.0 0.00 0.00 0.00 20 1019.3
20260503171016 62 14 3.0 10.0 0.00 0.00 0.00 22 1019.3
20260503150959 56 349 1.0 11.0 0.00 0.00 0.00 29 1019.9